Dewpoint
63 65 69 68 69 72 72 72 72 72 72 71 70 71 71 72 72 72 72 72 71 71 72 72 71 71 71 71 70 69 69 68 66 66 67 69 69 70 69 70 71 70 71
63 66 66 66 67 68 70 72 72 72 72 72 71 71 69 68 66 65 64 68 70 70 71 71 71 71 71 71 70 70 68 68 67 66 68 69 69 70 69 70 70 70 70
64 65 66 66 66 66 69 69 70 72 71 72 71 70 68 68 66 66 65 64 65 70 70 71 71 71 70 70 70 69 69 69 70 69 68 69 69 69 69 69 70 70 70
63 62 64 65 65 65 66 68 69 69 68 70 70 70 69 67 65 62 63 64 64 67 71 71 71 71 70 70 70 69 69 69 69 69 68 68 69 69 69 68 68 70 70
62 62 63 64 65 66 67 68 69 69 68 69 70 70 69 65 65 62 62 63 64 65 68 65 66 70 70 69 70 70 70 70 70 69 69 68 68 67 66 67 67 67 68
61 63 64 63 65 65 66 68 68 68 68 68 68 69 67 66 64 64 65 65 65 65 65 65 65 64 67 67 67 68 70 70 69 69 68 67 67 66 67 66 67 65 63
62 61 62 62 62 63 65 66 68 67 67 67 67 68 69 69 63 62 63 66 67 66 64 64 63 66 65 65 68 66 67 67 69 70 68 67 66 66 67 65 65 64 65
59 60 61 62 61 62 63 64 65 65 65 65 66 66 67 69 63 61 62 65 66 64 65 64 64 63 65 67 69 68 68 68 67 69 69 69 68 68 67 67 65 65 67
58 60 61 62 61 62 62 63 64 64 65 65 66 65 65 65 58 60 62 66 66 67 67 69 68 68 66 64 68 67 67 68 66 63 64 64 65 64 67 67 64 63 63
59 60 62 61 62 62 63 62 64 65 65 65 65 65 63 65 57 58 60 66 66 66 66 67 62 66 61 59 67 67 67 67 67 67 67 65 64 65 62 66 66 64 64
60 61 61 62 62 63 61 60 60 63 64 65 64 64 63 62 61 56 55 65 65 65 65 66 65 59 57 57 58 66 65 66 65 65 66 66 66 66 66 64 66 65 64
59 61 61 60 62 64 61 61 62 63 64 63 63 63 63 61 57 56 55 57 61 64 64 66 62 53 52 54 59 55 57 61 65 64 64 64 64 64 66 67 68 67 67
60 60 60 61 61 62 61 60 61 62 63 62 63 62 62 63 61 54 55 56 58 64 63 59 54 51 52 56 54 55 57 62 62 61 61 62 64 64 65 66 66 67 66
58 59 59 60 59 61 60 57 56 57 60 61 62 61 56 54 56 60 63 63 60 60 59 61 59 59 58 60 58 57 62 62 62 62 62 63 64 63 63 63 63 62 61
58 58 56 56 59 57 54 52 55 51 50 55 55 56 54 52 52 47 48 53 56 50 56 60 60 61 61 61 61 61 61 62 62 62 62 61 61 62 62 63 62 62 61
57 55 54 53 51 59 58 55 49 48 46 44 47 51 51 47 45 46 44 44 45 46 56 58 59 60 60 60 60 61 62 62 60 58 57 57 57 57 57 57 60 60 59
58 55 54 51 50 51 53 57 55 54 48 45 44 43 47 47 45 45 45 44 45 49 56 57 57 57 57 56 55 56 58 58 58 57 56 56 56 56 57 57 57 57 58
51 51 49 51 49 48 50 51 57 56 55 53 50 49 44 44 45 44 44 48 55 53 54 56 56 57 56 56 56 56 57 56 55 55 55 56 56 56 57 56 56 56 57
50 49 49 51 51 47 49 48 48 49 53 55 53 50 47 45 47 46 45 53 56 56 53 55 56 56 56 56 56 56 56 57 56 56 55 56 56 55 54 54 54 51 52
56 52 50 50 51 47 47 47 48 47 46 54 55 54 52 50 52 52 53 56 57 58 56 53 57 58 57 57 56 57 56 56 56 56 56 56 56 57 54 53 53 53 53
52 51 53 49 49 49 49 50 50 51 49 48 49 54 51 52 51 53 55 57 57 57 53 50 57 57 57 57 56 56 56 56 56 57 57 56 56 56 55 54 54 56 54
51 51 50 50 49 49 48 48 49 49 50 49 50 49 47 52 52 52 52 54 55 54 55 56 55 55 56 58 58 57 55 54 54 55 56 55 54 54 54 54 53 53 53
51 49 49 49 50 49 47 46 47 47 50 50 50 50 50 51 51 51 51 51 53 54 54 54 55 54 51 52 51 50 49 48 49 53 55 55 55 55 54 54 53 53 52
51 49 48 46 43 42 42 43 43 42 46 47 48 48 50 49 49 50 50 50 50 50 49 52 53 50 47 45 44 43 42 44 44 44 49 54 55 54 55 54 54 54 54
44 44 43 43 40 38 36 38 38 41 40 44 47 48 48 49 49 50 50 50 49 48 48 48 50 47 43 42 42 40 36 34 38 39 44 47 51 54 55 55 54 54 53
36 39 38 36 36 34 35 33 32 34 35 38 38 38 39 39 47 48 49 47 47 47 47 47 46 44 42 40 38 34 33 33 36 34 40 46 48 50 54 55 54 52 52
Lifted_Index
-0 -1 -2 -3 -5 -6 -7 -8 -8 -7 -7 -6 -6 -6 -5 -5 -4 -3 -3 -4 -4 -5 -5 -5 -4 -5 -5 -5 -4 -4 -4 -4 -4 -4 -3 -3 -3 -3 -3 -3 -3 -3 -3
-1 -1 -2 -3 -4 -5 -6 -7 -8 -8 -7 -7 -6 -6 -5 -4 -2 -2 -2 -3 -3 -4 -5 -5 -4 -4 -5 -5 -5 -4 -4 -4 -4 -4 -4 -4 -4 -4 -3 -3 -3 -3 -3
-1 -1 -2 -3 -3 -4 -5 -6 -7 -7 -7 -7 -6 -5 -4 -3 -1 0 0 -0 -1 -3 -4 -5 -5 -4 -5 -5 -5 -5 -5 -4 -4 -4 -4 -4 -4 -4 -3 -3 -4 -3 -3
0 -0 -1 -2 -3 -3 -4 -5 -6 -7 -6 -6 -6 -6 -5 -3 -1 1 2 2 1 -1 -3 -5 -5 -5 -5 -5 -5 -5 -5 -5 -5 -5 -5 -4 -4 -4 -4 -3 -3 -3 -3
1 0 -1 -1 -2 -3 -4 -5 -6 -6 -6 -6 -6 -6 -5 -4 -2 -0 1 1 1 -0 -2 -3 -4 -5 -5 -4 -5 -5 -5 -5 -5 -5 -5 -4 -4 -4 -3 -3 -3 -3 -2
1 0 -0 -1 -1 -2 -3 -4 -5 -6 -5 -5 -5 -5 -5 -4 -4 -3 -2 -1 -0 -0 -1 -1 -2 -3 -4 -4 -4 -4 -5 -5 -5 -5 -4 -4 -3 -3 -2 -2 -2 -2 -1
1 1 1 0 0 -0 -1 -3 -4 -5 -5 -5 -5 -5 -5 -5 -5 -4 -3 -2 -1 -1 -1 -0 -0 -1 -2 -2 -3 -4 -4 -5 -5 -4 -4 -3 -3 -2 -2 -1 -1 -1 -0
2 2 1 1 1 1 -0 -2 -3 -3 -3 -4 -4 -4 -4 -5 -5 -5 -4 -3 -2 -2 -1 -0 0 0 -1 -1 -2 -3 -4 -4 -4 -4 -3 -3 -2 -2 -1 -1 -0 0 1
2 2 2 2 1 1 -0 -1 -2 -2 -3 -3 -3 -3 -4 -4 -4 -4 -4 -4 -3 -2 -2 -1 -1 -1 -1 -1 -2 -3 -3 -3 -3 -3 -3 -2 -2 -2 -1 -1 0 1 1
2 2 2 2 1 1 0 0 -0 -1 -2 -2 -3 -3 -3 -3 -3 -4 -4 -3 -3 -2 -2 -2 -2 -2 -2 -2 -2 -2 -2 -2 -2 -2 -2 -2 -1 -1 -1 0 1 2 2
1 1 1 2 1 1 1 1 1 -1 -2 -2 -2 -2 -2 -3 -3 -3 -3 -2 -2 -2 -1 -1 -2 -2 -1 -1 -1 -1 -2 -2 -1 -1 -1 -1 -1 -0 0 1 1 2 2
1 1 1 1 1 1 1 2 1 0 -1 -1 -1 -1 -2 -2 -2 -3 -2 -2 -2 -1 -1 -1 -1 -1 -0 0 -0 -0 -1 -1 -1 -0 0 0 0 1 1 1 1 1 1
1 1 1 1 1 1 1 1 1 1 0 -0 -0 -0 -1 -1 -1 -2 -2 -2 -1 -1 -1 -1 -0 0 0 1 1 1 0 0 0 1 1 1 1 1 1 1 1 1 1
1 1 0 0 0 1 1 2 1 0 -0 -0 0 0 1 1 1 1 0 0 -0 -0 -0 -0 0 0 0 0 0 1 1 1 1 1 0 0 1 1 1 1 1 1 1
1 1 1 0 -0 0 1 2 2 1 0 0 1 1 2 2 3 3 3 2 1 1 1 1 0 0 0 0 0 0 0 0 1 1 0 0 1 1 2 1 1 1 1
1 1 1 1 1 1 1 2 2 2 1 2 2 2 2 3 3 4 4 4 3 1 1 1 1 1 1 1 1 1 1 1 2 2 2 2 2 3 3 3 2 2 2
2 2 2 2 2 2 2 2 2 2 2 3 3 3 3 3 3 3 4 4 3 2 1 1 1 1 2 2 2 2 2 2 3 3 3 4 4 4 4 4 4 4 3
2 2 2 2 2 3 3 3 2 2 3 3 3 3 3 3 3 3 3 4 3 3 2 2 2 2 2 3 3 3 3 3 3 4 4 4 4 4 4 4 4 4 4
2 2 2 2 2 3 4 4 4 3 3 2 3 3 3 4 4 4 3 3 3 2 2 2 2 2 3 3 3 3 3 3 4 4 4 4 4 4 4 4 5 5 4
1 2 2 2 2 3 4 4 4 4 3 3 2 2 3 4 4 4 3 3 2 2 2 2 2 2 3 3 4 4 4 4 4 4 4 3 3 3 4 4 4 4 4
1 2 2 2 2 3 3 3 3 3 3 3 2 2 2 3 3 3 3 2 2 2 2 2 2 2 2 3 3 3 3 4 4 3 3 3 3 3 3 4 4 4 4
2 2 2 2 3 3 3 3 3 3 3 3 3 3 3 3 3 3 3 2 2 2 2 2 2 2 2 2 2 3 3 3 3 3 3 3 3 3 3 3 4 4 4
2 2 2 3 3 3 3 3 4 4 4 3 3 3 3 3 3 3 3 3 3 3 3 3 3 3 3 3 3 3 3 3 3 3 3 3 3 3 3 3 3 3 4
2 2 3 3 4 4 4 4 4 5 5 5 4 4 4 4 5 5 5 5 5 4 4 4 4 4 4 4 5 4 4 4 3 3 3 3 3 3 3 3 3 3 3
4 4 4 4 4 4 5 5 5 6 6 6 6 6 6 6 6 6 7 7 7 7 7 7 7 6 6 6 7 7 6 5 5 5 4 4 4 3 3 3 3 3 3
5 5 5 4 5 5 5 5 6 6 7 7 7 7 7 7 7 7 8 8 8 8 8 8 8 8 8 8 8 8 8 7 7 7 6 6 5 4 3 3 3 3 3